This is the latest recevied weather packets stored in our database for station/object W4BOD. If no packets are shown the sender has not sent any weather packets the latest 10 day(s).
| Time | Temp. | Humidity | Pressure | Rain* | Wind** | Luminosity | Snow |
|---|---|---|---|---|---|---|---|
| 1777395098 | 24.44° C | 80% | 1016.4 hPa | 0 mm | - | 266 W/m² | - |
| 1777394795 | 24.44° C | 81% | 1016.5 hPa | 0 mm | - | 331 W/m² | - |
| 1777394491 | 24.44° C | 80% | 1016.4 hPa | 0 mm | - | 415 W/m² | - |
| 1777394187 | 24.44° C | 80% | 1016.6 hPa | 0 mm | - | 341 W/m² | - |
| 1777393883 | 24.44° C | 80% | 1016.7 hPa | 0 mm | - | 406 W/m² | - |
| 1777393582 | 25° C | 78% | 1016.9 hPa | 0 mm | - | 334 W/m² | - |
| 1777393278 | 24.44° C | 81% | 1016.6 hPa | 0 mm | - | 1081 W/m² | - |
| 1777392975 | 24.44° C | 79% | 1016.7 hPa | 0 mm | - | 865 W/m² | - |
| 1777392670 | 23.89° C | 81% | 1016.8 hPa | 0 mm | - | 937 W/m² | - |
| 1777392367 | 23.89° C | 82% | 1016.8 hPa | 0 mm | - | 453 W/m² | - |
| 1777392062 | 23.33° C | 82% | 1016.9 hPa | 0 mm | - | 366 W/m² | - |
| 1777391756 | 23.33° C | 83% | 1017.1 hPa | 0 mm | - | 379 W/m² | - |
| 1777391454 | 23.33° C | 83% | 1017.1 hPa | 0 mm | - | 296 W/m² | - |
| 1777391150 | 22.78° C | 86% | 1017.1 hPa | 0 mm | - | 311 W/m² | - |
| 1777390846 | 22.78° C | 84% | 1016.9 hPa | 0 mm | - | 311 W/m² | - |
| 1777390543 | 22.78° C | 85% | 1017 hPa | 0 mm | - | 352 W/m² | - |
| 1777390240 | 22.78° C | 86% | 1017.1 hPa | 0 mm | - | 268 W/m² | - |
| 1777389936 | 22.78° C | 87% | 1017.1 hPa | 0 mm | - | 287 W/m² | - |
| 1777389633 | 22.22° C | 86% | 1016.9 hPa | 0 mm | - | 470 W/m² | - |
| 1777389329 | 22.22° C | 88% | 1017 hPa | 0 mm | - | 302 W/m² | - |
| 1777389027 | 22.22° C | 86% | 1017.2 hPa | 0 mm | - | 830 W/m² | - |
| 1777388724 | 22.22° C | 88% | 1017 hPa | 0 mm | - | 915 W/m² | - |
| 1777388421 | 21.67° C | 87% | 1016.9 hPa | 0 mm | - | 428 W/m² | - |
| 1777388120 | 21.67° C | 88% | 1017.2 hPa | 0 mm | - | 921 W/m² | - |
| 1777387816 | 21.67° C | 88% | 1017 hPa | 0 mm | - | 286 W/m² | - |
* Rain latest hour (hover to see other rain measurements)
** Current wind speed in m/s (hover to see current wind gust speed)